Lid_Strength_Index
4 5 5 4 5 4 4 4 3 3 3 4 4 4 5 5 5 6 6 6 6 6 6 6 6 5 5 6 5 5 5 5 5 5 4 3 3 4 4 5 6 6 6
6 6 5 5 5 5 4 4 4 4 4 4 4 4 5 5 5 6 6 6 6 6 6 6 6 6 5 5 6 6 6 5 5 7 6 6 6 5 5 5 6 6 6
7 7 6 6 5 5 4 5 4 4 4 4 5 5 5 5 5 6 6 7 6 7 6 6 6 5 5 6 6 6 5 6 5 5 6 7 7 7 4 6 5 6 7
6 6 6 6 5 5 5 5 4 4 4 4 4 5 4 5 5 6 7 7 6 7 6 6 5 5 5 5 6 6 6 6 7 5 6 5 6 8 8 4 6 6 6
5 6 6 5 5 5 5 5 5 5 4 4 4 4 5 5 5 6 6 6 6 6 6 6 5 5 5 5 6 6 6 6 6 7 7 6 5 7 8 8 7 6 6
5 5 5 4 5 5 5 5 4 5 4 4 5 5 5 6 6 5 6 6 6 6 6 6 5 5 6 6 6 6 7 7 7 7 8 9 9 10 9 9 9 8 7
6 6 6 5 5 6 5 4 5 5 5 5 5 5 6 5 5 6 6 7 7 7 7 6 6 7 8 8 8 7 7 7 8 8 8 8 10 11 11 11 10 10 7
5 5 5 5 5 5 5 5 5 5 4 5 5 5 5 5 6 6 6 7 7 7 7 7 7 9 9 8 7 7 8 7 8 8 8 7 8 10 10 11 12 11 8
5 5 5 5 5 5 4 4 4 5 5 5 5 5 6 6 7 7 7 7 7 8 8 8 9 9 9 8 8 8 8 8 7 7 7 7 7 7 7 8 9 10 11
6 5 5 5 4 4 4 4 4 5 5 5 5 6 6 6 7 8 8 8 8 8 8 9 9 9 8 8 8 8 8 8 7 7 8 8 7 7 7 7 7 8 9
6 6 5 5 5 4 5 5 5 6 6 6 6 6 7 7 7 9 9 8 8 8 9 9 9 9 8 8 8 8 8 8 8 7 7 8 7 8 8 7 7 8 8
4 4 5 7 7 8 6 5 6 6 6 6 6 6 7 7 8 9 9 8 8 9 9 9 9 9 9 8 8 8 8 8 8 8 8 8 8 7 8 8 8 8 8
4 5 6 7 7 9 8 6 6 5 5 6 6 7 7 8 8 9 9 9 9 9 9 9 8 9 9 8 8 8 8 8 8 8 8 9 9 8 8 8 8 8 8
5 8 8 9 8 7 8 7 6 7 6 6 7 7 8 8 8 9 9 9 9 9 9 8 9 9 9 9 9 8 8 9 9 8 8 9 10 10 10 9 9 9 9
5 6 6 6 8 9 7 7 6 7 6 7 7 7 7 8 8 9 10 10 9 9 9 8 8 8 9 9 9 9 9 9 9 9 9 9 11 12 12 11 10 10 10
5 4 6 6 7 8 7 7 6 6 6 7 7 7 8 9 9 10 10 10 10 10 9 9 10 9 10 12 12 10 9 10 10 10 9 9 10 11 13 14 14 13 13
4 5 5 6 6 7 7 6 6 6 6 7 7 7 8 9 9 10 10 10 9 8 9 9 9 10 10 12 12 12 10 10 11 11 10 10 10 11 12 13 14 14 14
4 4 5 5 6 6 6 5 6 6 7 8 7 7 8 9 9 9 9 8 8 8 8 8 8 8 10 12 12 12 10 10 11 11 11 11 11 12 13 13 13 13 13
3 4 4 5 5 5 6 6 6 7 8 8 8 8 8 8 8 8 8 8 8 8 8 9 9 9 9 12 12 12 9 10 11 11 12 12 12 13 14 13 14 14 14
4 4 5 5 5 5 6 6 7 8 8 8 8 8 8 7 7 8 8 7 7 8 8 9 9 12 10 12 12 12 9 10 10 11 11 14 13 14 14 13 13 14 14
4 5 5 5 6 6 7 9 10 10 9 8 7 7 7 7 7 7 7 8 8 8 8 9 9 10 10 11 12 13 11 11 11 11 11 11 15 15 15 15 14 16 15
5 5 6 6 6 7 8 10 10 10 9 9 8 7 6 7 7 7 7 8 8 8 9 9 10 10 10 13 12 13 13 14 12 11 11 12 16 16 15 14 17 16 14
5 5 6 7 7 7 8 10 10 10 9 9 9 9 8 7 7 7 8 8 8 8 9 9 9 9 10 10 13 12 13 14 12 11 14 16 17 17 15 17 17 15 13
6 5 6 7 8 8 8 8 8 8 9 9 9 9 9 9 8 7 8 7 8 8 8 9 9 9 10 10 10 11 11 13 13 14 13 15 16 18 17 15 14 13 14
5 6 7 8 9 8 9 8 7 7 8 8 8 8 9 9 9 8 8 8 8 8 8 8 8 9 10 10 10 10 10 10 11 12 12 12 12 13 13 13 14 13 13
5 6 7 8 8 8 9 8 8 8 8 9 8 8 8 8 8 9 9 13 12 11 11 10 9 8 11 11 11 12 12 12 13 13 12 12 12 13 13 13 14 13 15